Tracking 35275 objects as of 8-Sep-2026
HD Live streaming from Space Station
objects crossing your sky now

STARLINK-34002

Track STARLINK-34002 now!
10-day predictions
STARLINK-34002 is classified as:


NORAD ID: 63856
Int'l Code: 2025-093W
Launch date: May 7, 2025
Source: United States (US)
Launch site: AIR FORCE EASTERN TEST RANGE (AFETR)
Your satellite tracking list
Your tracking list is empty




NASA's NSSDC Master Catalog

Two Line Element Set (TLE):
1 63856U 25093W   26251.00111087  .00017024  00000-0  62646-3 0  9992
2 63856  43.0009 128.3452 0001470 272.5711  87.4973 15.27593671 75633
Source of the keplerian elements: AFSPC